Location: ??
(35.5052°N, 139.7262°E)
Time: 03:28:09
(UTC+00:00)

MSX - Pass Details

Date: 20 June 2021
Orbit: 894 x 906 km, 98.8° (Epoch: 26 July)

Event Time Altitude Azimuth Distance (km) Brightness Sun altitude
Rises 17:41:42 0° 11° (N) 3,530 7.9 -17.4°
Reaches altitude 10° 17:44:07 10° 10° (N) 2,584 7.1 -17.1°
Maximum altitude 17:49:53 79° 285° (WNW) 918 3.8 -16.3°
Enters shadow 17:53:53 21° 201° (SSW) 1,916 5.0 -15.7°
